Content
SEND FEEDBACK

Daily
Averages
Monthly
Summary
United States of America

DOWNIEVILLE, CALIFORNIA


Home > North America > United States > California
Elevation: 5045 feet     Latitude: 39 34N     Longitude: 120 38W

WEATHER
 
SELECT A DAY
Number of Records: 231,463;   Date Range: 1/1/95 - 9/13/14
 
SHARE

PRINT THIS DATA

[ ← Previous Day ]
WEATHER ALMANAC - OCTOBER 8, 2013
[ Next Day → ]
[ °C ]   °F
We're sorry. There is no daily almanac available for Downieville, California on October 8, 2013.
WEATHER BY HOUR - OCTOBER 8, 2013
[ °C ]   °F
Local TimeTemperatureDewpointHumidityBarometerVisibilityWind DirectionWind SpeedGust SpeedPrecipitationEventsConditions
1:52 AM53.1 °F17.1 °F24 %29.85 in10.0 miCalmClear
2:52 AM52.0 °F17.1 °F25 %29.84 in10.0 miENE (60°)3.5 mphClear
3:52 AM51.1 °F16.0 °F25 %29.84 in10.0 miNE (40°)3.5 mphClear
4:52 AM51.1 °F16.0 °F25 %29.85 in10.0 miNE (50°)4.6 mphClear
5:52 AM51.1 °F15.1 °F24 %29.86 in10.0 miVariable4.6 mphClear
6:52 AM52.0 °F12.0 °F20 %29.85 in10.0 miNE (50°)4.6 mphClear
7:52 AM52.0 °F19.0 °F27 %29.86 in10.0 miNE (50°)4.6 mphClear
8:52 AM55.9 °F25.0 °F30 %29.85 in10.0 miCalmClear
9:52 AM57.9 °F21.9 °F25 %29.84 in10.0 miSE (130°)4.6 mphClear
10:52 AM57.9 °F21.0 °F24 %29.82 in10.0 miCalmClear
11:52 AM57.9 °F19.9 °F23 %29.81 in10.0 miCalmClear
12:52 PM59.0 °F21.9 °F24 %29.79 in10.0 miWest (280°)6.9 mphClear
1:52 PM57.0 °F23.0 °F27 %29.78 in10.0 miWSW (240°)6.9 mphClear
2:52 PM57.0 °F23.0 °F27 %29.76 in10.0 miSW (220°)6.9 mphClear
3:52 PM57.0 °F21.9 °F26 %29.75 in10.0 miSouth (180°)8.1 mphClear
4:52 PM55.9 °F25.0 °F30 %29.74 in10.0 miSW (220°)6.9 mphClear
5:52 PM54.0 °F25.0 °F33 %29.73 in10.0 miSouth (180°)5.8 mphClear
6:52 PM51.1 °F26.1 °F38 %29.73 in10.0 miSSW (200°)3.5 mphClear
7:52 PM51.1 °F26.1 °F38 %29.71 in10.0 miSouth (190°)3.5 mphClear
8:52 PM48.9 °F26.1 °F41 %29.69 in10.0 miCalmOvercast
9:52 PM48.0 °F27.0 °F44 %29.68 in10.0 miCalmOvercast
10:52 PM46.9 °F27.0 °F46 %29.65 in10.0 miCalmMostly Cloudy
11:52 PM45.0 °F27.0 °F49 %29.62 in10.0 miESE (120°)3.5 mphOvercast
Hourly data recorded from KBLU, located miles away from Downieville, California







STORIES FROM OUR PARTNERS